Zurück zum Katalog

STARLINK-34414

AktivKommunikationVLEO
NORAD 64620·PAYLOAD·🇺🇸 United States

Gestartet Jun 25, 2025 von Cape Canaveral Space Force Station

Loading…

Nächste Überflüge (nächste 24 Stunden)

TLE

AktuellSource: CelesTrak SupGP

Epoche: Sep 15, 2026, 03:16 UTC

1 64620C 25137AC  26258.13659722  .00053175  00000+0  15709-2 0  2586
2 64620  53.1566 172.7480 0001291 100.3523 331.9130 15.34368341    11

Verfolge STARLINK-34414 in Echtzeit mit AllMySat

Download on the App Store